This demonstration page uses our WeatherBlox Daily Observations layout. Learn more.

39.92423, -83.80882

Hourly Observations for June 27, 2016

Temp ( °F °C ) Dew Point ( °F °C ) Humidity (%) Winds ( mph kmh ) Pressure ( in mb ) Visibility ( mi km ) Precip ( " mm )
12:56 am 00:56 Clear 72 22.2 72 22.2 100 100 Calm 30.03 1017 10 16.0934 0.05 1.27
1:56 am 01:56 Mostly Clear 72 22.2 72 22.2 100 100 Calm 30.03 1017 10 16.0934 0 0
2:56 am 02:56 Mostly Clear 72 22.2 72 22.2 100 100 Calm 30.02 1017 10 16.0934 0 0
3:56 am 03:56 Cloudy with Light Rain 72 22.2 72 22.2 100 100 NW 3 6 30.02 1017 9 14.48406 0.01 0.254
4:56 am 04:56 Mostly Cloudy 73 22.7 73 22.7 100 100 W 3 6 30.03 1017 10 16.0934 0 0.0254
5:56 am 05:56 Cloudy 73 22.7 73 22.7 100 100 Calm 30.04 1017 9 14.48406 0 0
6:56 am 06:56 Partly Cloudy 73 22.7 73 22.7 100 100 W 5 7 30.04 1017 7 11.26538 0 0
7:56 am 07:56 Cloudy with Mist and Fog 73 22.7 73 22.7 100 100 W 6 9 30.06 1018 5 8.0467 0 0
8:22 am 08:22 Cloudy with Mist and Fog 73 23 73 23 100 100 WNW 5 7 30.06 1018 6 9.65604 0 0
8:56 am 08:56 Partly Cloudy 75 23.8 75 23.8 100 100 NW 5 7 30.06 1018 8 12.87472 0 0
9:56 am 09:56 Sunny 80 26.6 73 22.7 79 79 NNW 8 13 30.06 1018 10 16.0934 0 0
10:56 am 10:56 Sunny 83 28.3 69 20.5 63 63 NW 5 7 30.06 1018 10 16.0934 0 0
11:56 am 11:56 Sunny 86 30 66 18.8 51 51 VRB 6 9 30.07 1018 10 16.0934 0 0
12:56 pm 12:56 Sunny 88 31.1 59 15 38 38 NW 9 15 30.06 1018 10 16.0934 0 0
1:56 pm 13:56 Sunny 88 31.1 59 15 38 38 WNW 10 17 30.04 1017 10 16.0934 0 0
2:56 pm 14:56 Sunny 89 31.6 58 14.4 35 35 WNW 10 17 30.02 1017 10 16.0934 0 0
3:56 pm 15:56 Sunny 91 32.7 59 15 34 34 NW 14 22 30 1016 10 16.0934 0 0
4:56 pm 16:56 Sunny 91 32.7 59 15 34 34 NW 13 20 29.98 1015 10 16.0934 0 0
5:56 pm 17:56 Sunny 91 32.7 57 13.8 32 32 NW 12 19 29.98 1015 10 16.0934 0 0
6:56 pm 18:56 Sunny 90 32.2 57 13.8 33 33 NNW 9 15 29.98 1015 10 16.0934 0 0
7:56 pm 19:56 Sunny 88 31.1 59 15 38 38 NW 5 7 29.99 1016 10 16.0934 0 0
8:56 pm 20:56 Sunny 81 27.2 67 19.4 62 62 WSW 5 7 29.99 1016 10 16.0934 0 0
9:56 pm 21:56 Clear 76 24.4 66 18.8 71 71 WSW 6 9 30 1016 10 16.0934 0 0
10:56 pm 22:56 Clear 76 24.4 63 17.2 64 64 SW 5 7 30 1016 10 16.0934 0 0
11:56 pm 23:56 Partly Cloudy 74 23.3 64 17.7 71 71 SW 5 7 29.99 1016 10 16.0934 0 0

Powered by AerisWeather